Year,Month,Day,Hour,Minute,Value (Times are PST for temperature in C)
2014,09,13,00,00,11.70
2014,09,13,00,01,11.70
2014,09,13,00,02,11.70
2014,09,13,00,03,11.60
2014,09,13,00,04,11.60
2014,09,13,00,05,11.60
2014,09,13,00,06,11.60
2014,09,13,00,07,11.50
2014,09,13,00,08,11.50
2014,09,13,00,09,11.40
2014,09,13,00,10,11.40
2014,09,13,00,11,11.40
2014,09,13,00,12,11.40
2014,09,13,00,13,11.40
2014,09,13,00,14,11.30
2014,09,13,00,15,11.30
2014,09,13,00,16,11.30
2014,09,13,00,17,11.30
2014,09,13,00,18,11.30
2014,09,13,00,19,11.30
2014,09,13,00,20,11.30
2014,09,13,00,21,11.30
2014,09,13,00,22,11.40
2014,09,13,00,23,11.50
2014,09,13,00,24,11.50
2014,09,13,00,25,11.60
2014,09,13,00,26,11.70
2014,09,13,00,27,11.80
2014,09,13,00,28,11.80
2014,09,13,00,29,11.90
2014,09,13,00,30,11.90
2014,09,13,00,31,12.00
2014,09,13,00,32,12.00
2014,09,13,00,33,12.00
2014,09,13,00,34,12.10
2014,09,13,00,35,12.00
2014,09,13,00,36,12.00
2014,09,13,00,37,11.90
2014,09,13,00,38,11.90
2014,09,13,00,39,11.80
2014,09,13,00,40,11.80
2014,09,13,00,41,11.70
2014,09,13,00,42,11.60
2014,09,13,00,43,11.60
2014,09,13,00,44,11.50
2014,09,13,00,45,11.50
2014,09,13,00,46,11.40
2014,09,13,00,47,11.40
2014,09,13,00,48,11.40
2014,09,13,00,49,11.30
2014,09,13,00,50,11.30
2014,09,13,00,51,11.30
2014,09,13,00,52,11.30
2014,09,13,00,53,11.30
2014,09,13,00,54,11.20
2014,09,13,00,55,11.20
2014,09,13,00,56,11.20
2014,09,13,00,57,11.20
2014,09,13,00,58,11.20
2014,09,13,00,59,11.20
2014,09,13,01,00,11.30
2014,09,13,01,01,11.30
2014,09,13,01,02,11.30
2014,09,13,01,03,11.40
2014,09,13,01,04,11.40
2014,09,13,01,05,11.40
2014,09,13,01,06,11.40
2014,09,13,01,07,11.40
2014,09,13,01,08,11.40
2014,09,13,01,09,11.40
2014,09,13,01,10,11.40
2014,09,13,01,11,11.40
2014,09,13,01,12,11.40
2014,09,13,01,13,11.40
2014,09,13,01,14,11.40
2014,09,13,01,15,11.40
2014,09,13,01,16,11.40
2014,09,13,01,17,11.50
2014,09,13,01,18,11.50
2014,09,13,01,19,11.60
2014,09,13,01,20,11.60
2014,09,13,01,21,11.60
2014,09,13,01,22,11.60
2014,09,13,01,23,11.60
2014,09,13,01,24,11.60
2014,09,13,01,25,11.60
2014,09,13,01,26,11.60
2014,09,13,01,27,11.50
2014,09,13,01,28,11.40
2014,09,13,01,29,11.40
2014,09,13,01,30,11.30
2014,09,13,01,31,11.30
2014,09,13,01,32,11.30
2014,09,13,01,33,11.20
2014,09,13,01,34,11.20
2014,09,13,01,35,11.20
2014,09,13,01,36,11.10
2014,09,13,01,37,11.10
2014,09,13,01,38,11.10
2014,09,13,01,39,11.00
2014,09,13,01,40,11.00
2014,09,13,01,41,11.00
2014,09,13,01,42,10.90
2014,09,13,01,43,10.90
2014,09,13,01,44,10.90
2014,09,13,01,45,10.90
2014,09,13,01,46,10.80
2014,09,13,01,47,10.80
2014,09,13,01,48,10.80
2014,09,13,01,49,10.80
2014,09,13,01,50,10.80
2014,09,13,01,51,10.80
2014,09,13,01,52,10.70
2014,09,13,01,53,10.70
2014,09,13,01,54,10.70
2014,09,13,01,55,10.70
2014,09,13,01,56,10.70
2014,09,13,01,57,10.70
2014,09,13,01,58,10.70
2014,09,13,01,59,10.70
2014,09,13,02,00,10.70
2014,09,13,02,01,10.60
2014,09,13,02,02,10.60
2014,09,13,02,03,10.60
2014,09,13,02,04,10.50
2014,09,13,02,05,10.50
2014,09,13,02,06,10.50
2014,09,13,02,07,10.40
2014,09,13,02,08,10.40
2014,09,13,02,09,10.40
2014,09,13,02,10,10.40
2014,09,13,02,11,10.40
2014,09,13,02,12,10.40
2014,09,13,02,13,10.40
2014,09,13,02,14,10.40
2014,09,13,02,15,10.40
2014,09,13,02,16,10.50
2014,09,13,02,17,10.50
2014,09,13,02,18,10.50
2014,09,13,02,19,10.50
2014,09,13,02,20,10.50
2014,09,13,02,21,10.50
2014,09,13,02,22,10.40
2014,09,13,02,23,10.40
2014,09,13,02,24,10.30
2014,09,13,02,25,10.30
2014,09,13,02,26,10.20
2014,09,13,02,27,10.10
2014,09,13,02,28,10.10
2014,09,13,02,29,10.00
2014,09,13,02,30,10.00
2014,09,13,02,31,9.90
2014,09,13,02,32,9.90
2014,09,13,02,33,9.90
2014,09,13,02,34,9.90
2014,09,13,02,35,9.90
2014,09,13,02,36,9.90
2014,09,13,02,37,10.00
2014,09,13,02,38,10.00
2014,09,13,02,39,10.00
2014,09,13,02,40,10.10
2014,09,13,02,41,10.10
2014,09,13,02,42,10.10
2014,09,13,02,43,10.10
2014,09,13,02,44,10.00
2014,09,13,02,45,10.00
2014,09,13,02,46,10.00
2014,09,13,02,47,10.00
2014,09,13,02,48,9.90
2014,09,13,02,49,9.90
2014,09,13,02,50,9.90
2014,09,13,02,51,9.90
2014,09,13,02,52,9.80
2014,09,13,02,53,9.80
2014,09,13,02,54,9.80
2014,09,13,02,55,9.80
2014,09,13,02,56,9.80
2014,09,13,02,57,9.80
2014,09,13,02,58,9.80
2014,09,13,02,59,9.80
2014,09,13,03,00,9.80
2014,09,13,03,01,9.80
2014,09,13,03,02,9.80
2014,09,13,03,03,9.80
2014,09,13,03,04,9.70
2014,09,13,03,05,9.70
2014,09,13,03,06,9.70
2014,09,13,03,07,9.70
2014,09,13,03,08,9.60
2014,09,13,03,09,9.60
2014,09,13,03,10,9.60
2014,09,13,03,11,9.60
2014,09,13,03,12,9.50
2014,09,13,03,13,9.50
2014,09,13,03,14,9.50
2014,09,13,03,15,9.40
2014,09,13,03,16,9.40
2014,09,13,03,17,9.40
2014,09,13,03,18,9.40
2014,09,13,03,19,9.30
2014,09,13,03,20,9.30
2014,09,13,03,21,9.30
2014,09,13,03,22,9.30
2014,09,13,03,23,9.30
2014,09,13,03,24,9.30
2014,09,13,03,25,9.20
2014,09,13,03,26,9.20
2014,09,13,03,27,9.20
2014,09,13,03,28,9.20
2014,09,13,03,29,9.20
2014,09,13,03,30,9.30
2014,09,13,03,31,9.30
2014,09,13,03,32,9.30
2014,09,13,03,33,9.30
2014,09,13,03,34,9.40
2014,09,13,03,35,9.40
2014,09,13,03,36,9.40
2014,09,13,03,37,9.40
2014,09,13,03,38,9.40
2014,09,13,03,39,9.40
2014,09,13,03,40,9.40
2014,09,13,03,41,9.40
2014,09,13,03,42,9.40
2014,09,13,03,43,9.30
2014,09,13,03,44,9.30
2014,09,13,03,45,9.30
2014,09,13,03,46,9.30
2014,09,13,03,47,9.20
2014,09,13,03,48,9.20
2014,09,13,03,49,9.20
2014,09,13,03,50,9.20
2014,09,13,03,51,9.20
2014,09,13,03,52,9.20
2014,09,13,03,53,9.20
2014,09,13,03,54,9.20
2014,09,13,03,55,9.20
2014,09,13,03,56,9.10
2014,09,13,03,57,9.10
2014,09,13,03,58,9.10
2014,09,13,03,59,9.10
2014,09,13,04,00,9.00
2014,09,13,04,01,9.00
2014,09,13,04,02,9.00
2014,09,13,04,03,8.90
2014,09,13,04,04,8.90
2014,09,13,04,05,8.90
2014,09,13,04,06,8.90
2014,09,13,04,07,8.80
2014,09,13,04,08,8.80
2014,09,13,04,09,8.80
2014,09,13,04,10,8.80
2014,09,13,04,11,8.80
2014,09,13,04,12,8.80
2014,09,13,04,13,8.80
2014,09,13,04,14,8.90
2014,09,13,04,15,8.90
2014,09,13,04,16,8.90
2014,09,13,04,17,8.80
2014,09,13,04,18,8.80
2014,09,13,04,19,8.80
2014,09,13,04,20,8.80
2014,09,13,04,21,8.80
2014,09,13,04,22,8.80
2014,09,13,04,23,8.80
2014,09,13,04,24,8.80
2014,09,13,04,25,8.80
2014,09,13,04,26,8.80
2014,09,13,04,27,8.70
2014,09,13,04,28,8.70
2014,09,13,04,29,8.70
2014,09,13,04,30,8.70
2014,09,13,04,31,8.70
2014,09,13,04,32,8.70
2014,09,13,04,33,8.70
2014,09,13,04,34,8.70
2014,09,13,04,35,8.70
2014,09,13,04,36,8.70
2014,09,13,04,37,8.70
2014,09,13,04,38,8.70
2014,09,13,04,39,8.70
2014,09,13,04,40,8.60
2014,09,13,04,41,8.60
2014,09,13,04,42,8.60
2014,09,13,04,43,8.60
2014,09,13,04,44,8.60
2014,09,13,04,45,8.60
2014,09,13,04,46,8.50
2014,09,13,04,47,8.50
2014,09,13,04,48,8.50
2014,09,13,04,49,8.50
2014,09,13,04,50,8.50
2014,09,13,04,51,8.50
2014,09,13,04,52,8.50
2014,09,13,04,53,8.50
2014,09,13,04,54,8.50
2014,09,13,04,55,8.60
2014,09,13,04,56,8.50
2014,09,13,04,57,8.60
2014,09,13,04,58,8.60
2014,09,13,04,59,8.60
2014,09,13,05,00,8.60
2014,09,13,05,01,8.60
2014,09,13,05,02,8.60
2014,09,13,05,03,8.50
2014,09,13,05,04,8.50
2014,09,13,05,05,8.50
2014,09,13,05,06,8.40
2014,09,13,05,07,8.40
2014,09,13,05,08,8.40
2014,09,13,05,09,8.40
2014,09,13,05,10,8.40
2014,09,13,05,11,8.30
2014,09,13,05,12,8.30
2014,09,13,05,13,8.30
2014,09,13,05,14,8.30
2014,09,13,05,15,8.40
2014,09,13,05,16,8.40
2014,09,13,05,17,8.40
2014,09,13,05,18,8.40
2014,09,13,05,19,8.40
2014,09,13,05,20,8.40
2014,09,13,05,21,8.30
2014,09,13,05,22,8.30
2014,09,13,05,23,8.30
2014,09,13,05,24,8.30
2014,09,13,05,25,8.20
2014,09,13,05,26,8.20
2014,09,13,05,27,8.20
2014,09,13,05,28,8.20
2014,09,13,05,29,8.20
2014,09,13,05,30,8.20
2014,09,13,05,31,8.20
2014,09,13,05,32,8.20
2014,09,13,05,33,8.20
2014,09,13,05,34,8.20
2014,09,13,05,35,8.20
2014,09,13,05,36,8.20
2014,09,13,05,37,8.10
2014,09,13,05,38,8.10
2014,09,13,05,39,8.10
2014,09,13,05,40,8.10
2014,09,13,05,41,8.10
2014,09,13,05,42,8.10
2014,09,13,05,43,8.10
2014,09,13,05,44,8.20
2014,09,13,05,45,8.20
2014,09,13,05,46,8.10
2014,09,13,05,47,8.10
2014,09,13,05,48,8.10
2014,09,13,05,49,8.10
2014,09,13,05,50,8.10
2014,09,13,05,51,8.00
2014,09,13,05,52,8.00
2014,09,13,05,53,8.00
2014,09,13,05,54,8.00
2014,09,13,05,55,7.90
2014,09,13,05,56,7.90
2014,09,13,05,57,7.90
2014,09,13,05,58,7.90
2014,09,13,05,59,7.90
2014,09,13,06,00,7.90
2014,09,13,06,01,7.90
2014,09,13,06,02,7.90
2014,09,13,06,03,7.90
2014,09,13,06,04,7.90
2014,09,13,06,05,7.90
2014,09,13,06,06,7.90
2014,09,13,06,07,7.90
2014,09,13,06,08,7.90
2014,09,13,06,09,7.90
2014,09,13,06,10,7.90
2014,09,13,06,11,7.80
2014,09,13,06,12,7.80
2014,09,13,06,13,7.80
2014,09,13,06,14,7.80
2014,09,13,06,15,7.80
2014,09,13,06,16,7.80
2014,09,13,06,17,7.80
2014,09,13,06,18,7.80
2014,09,13,06,19,7.80
2014,09,13,06,20,7.80
2014,09,13,06,21,7.80
2014,09,13,06,22,7.80
2014,09,13,06,23,7.80
2014,09,13,06,24,7.80
2014,09,13,06,25,7.70
2014,09,13,06,26,7.70
2014,09,13,06,27,7.70
2014,09,13,06,28,7.70
2014,09,13,06,29,7.70
2014,09,13,06,30,7.70
2014,09,13,06,31,7.70
2014,09,13,06,32,7.70
2014,09,13,06,33,7.60
2014,09,13,06,34,7.60
2014,09,13,06,35,7.60
2014,09,13,06,36,7.60
2014,09,13,06,37,7.60
2014,09,13,06,38,7.60
2014,09,13,06,39,7.60
2014,09,13,06,40,7.60
2014,09,13,06,41,7.60
2014,09,13,06,42,7.60
2014,09,13,06,43,7.60
2014,09,13,06,44,7.60
2014,09,13,06,45,7.60
2014,09,13,06,46,7.60
2014,09,13,06,47,7.50
2014,09,13,06,48,7.50
2014,09,13,06,49,7.50
2014,09,13,06,50,7.50
2014,09,13,06,51,7.50
2014,09,13,06,52,7.50
2014,09,13,06,53,7.50
2014,09,13,06,54,7.40
2014,09,13,06,55,7.40
2014,09,13,06,56,7.40
2014,09,13,06,57,7.40
2014,09,13,06,58,7.40
2014,09,13,06,59,7.40
2014,09,13,07,00,7.40
2014,09,13,07,01,7.30
2014,09,13,07,02,7.30
2014,09,13,07,03,7.30
2014,09,13,07,04,7.30
2014,09,13,07,05,7.30
2014,09,13,07,06,7.30
2014,09,13,07,07,7.30
2014,09,13,07,08,7.30
2014,09,13,07,09,7.30
2014,09,13,07,10,7.30
2014,09,13,07,11,7.30
2014,09,13,07,12,7.40
2014,09,13,07,13,7.40
2014,09,13,07,14,7.50
2014,09,13,07,15,7.50
2014,09,13,07,16,7.60
2014,09,13,07,17,7.60
2014,09,13,07,18,7.60
2014,09,13,07,19,7.60
2014,09,13,07,20,7.60
2014,09,13,07,21,7.60
2014,09,13,07,22,7.60
2014,09,13,07,23,7.60
2014,09,13,07,24,7.50
2014,09,13,07,25,7.50
2014,09,13,07,26,7.50
2014,09,13,07,27,7.50
2014,09,13,07,28,7.40
2014,09,13,07,29,7.40
2014,09,13,07,30,7.40
2014,09,13,07,31,7.50
2014,09,13,07,32,7.50
2014,09,13,07,33,7.50
2014,09,13,07,34,7.50
2014,09,13,07,35,7.50
2014,09,13,07,36,7.60
2014,09,13,07,37,7.60
2014,09,13,07,38,7.60
2014,09,13,07,39,7.60
2014,09,13,07,40,7.60
2014,09,13,07,41,7.70
2014,09,13,07,42,7.60
2014,09,13,07,43,7.70
2014,09,13,07,44,7.70
2014,09,13,07,45,7.70
2014,09,13,07,46,7.70
2014,09,13,07,47,7.70
2014,09,13,07,48,7.70
2014,09,13,07,49,7.80
2014,09,13,07,50,7.80
2014,09,13,07,51,7.80
2014,09,13,07,52,7.80
2014,09,13,07,53,7.90
2014,09,13,07,54,7.90
2014,09,13,07,55,8.00
2014,09,13,07,56,8.00
2014,09,13,07,57,8.00
2014,09,13,07,58,8.10
2014,09,13,07,59,8.10
2014,09,13,08,00,8.10
2014,09,13,08,01,8.10
2014,09,13,08,02,8.10
2014,09,13,08,03,8.20
2014,09,13,08,04,8.20
2014,09,13,08,05,8.30
2014,09,13,08,06,8.30
2014,09,13,08,07,8.40
2014,09,13,08,08,8.50
2014,09,13,08,09,8.50
2014,09,13,08,10,8.60
2014,09,13,08,11,8.70
2014,09,13,08,12,8.80
2014,09,13,08,13,8.90
2014,09,13,08,14,8.90
2014,09,13,08,15,9.00
2014,09,13,08,16,9.20
2014,09,13,08,17,9.30
2014,09,13,08,18,9.40
2014,09,13,08,19,9.50
2014,09,13,08,20,9.60
2014,09,13,08,21,9.70
2014,09,13,08,22,9.90
2014,09,13,08,23,10.00
2014,09,13,08,24,10.10
2014,09,13,08,25,10.20
2014,09,13,08,26,10.30
2014,09,13,08,27,10.50
2014,09,13,08,28,10.60
2014,09,13,08,29,10.70
2014,09,13,08,30,10.80
2014,09,13,08,31,10.90
2014,09,13,08,32,11.00
2014,09,13,08,33,11.10
2014,09,13,08,34,11.20
2014,09,13,08,35,11.30
2014,09,13,08,36,11.40
2014,09,13,08,37,11.50
2014,09,13,08,38,11.50
2014,09,13,08,39,11.60
2014,09,13,08,40,11.70
2014,09,13,08,41,11.80
2014,09,13,08,42,11.90
2014,09,13,08,43,11.90
2014,09,13,08,44,12.00
2014,09,13,08,45,12.10
2014,09,13,08,46,12.20
2014,09,13,08,47,12.20
2014,09,13,08,48,12.30
2014,09,13,08,49,12.30
2014,09,13,08,50,12.40
2014,09,13,08,51,12.50
2014,09,13,08,52,12.50
2014,09,13,08,53,12.60
2014,09,13,08,54,12.60
2014,09,13,08,55,12.70
2014,09,13,08,56,12.80
2014,09,13,08,57,12.90
2014,09,13,08,58,13.00
2014,09,13,08,59,13.10
2014,09,13,09,00,13.20
2014,09,13,09,01,13.30
2014,09,13,09,02,13.30
2014,09,13,09,03,13.40
2014,09,13,09,04,13.50
2014,09,13,09,05,13.50
2014,09,13,09,06,13.60
2014,09,13,09,07,13.70
2014,09,13,09,08,13.70
2014,09,13,09,09,13.80
2014,09,13,09,10,13.80
2014,09,13,09,11,13.90
2014,09,13,09,12,13.90
2014,09,13,09,13,13.90
2014,09,13,09,14,14.00
2014,09,13,09,15,14.00
2014,09,13,09,16,14.10
2014,09,13,09,17,14.10
2014,09,13,09,18,14.20
2014,09,13,09,19,14.20
2014,09,13,09,20,14.20
2014,09,13,09,21,14.30
2014,09,13,09,22,14.30
2014,09,13,09,23,14.40
2014,09,13,09,24,14.40
2014,09,13,09,25,14.50
2014,09,13,09,26,14.50
2014,09,13,09,27,14.60
2014,09,13,09,28,14.60
2014,09,13,09,29,14.60
2014,09,13,09,30,14.70
2014,09,13,09,31,14.70
2014,09,13,09,32,14.80
2014,09,13,09,33,14.80
2014,09,13,09,34,14.90
2014,09,13,09,35,14.90
2014,09,13,09,36,15.00
2014,09,13,09,37,15.10
2014,09,13,09,38,15.10
2014,09,13,09,39,15.20
2014,09,13,09,40,15.30
2014,09,13,09,41,15.40
2014,09,13,09,42,15.50
2014,09,13,09,43,15.60
2014,09,13,09,44,15.60
2014,09,13,09,45,15.70
2014,09,13,09,46,15.70
2014,09,13,09,47,15.80
2014,09,13,09,48,15.80
2014,09,13,09,49,15.90
2014,09,13,09,50,15.90
2014,09,13,09,51,16.00
2014,09,13,09,52,16.10
2014,09,13,09,53,16.10
2014,09,13,09,54,16.10
2014,09,13,09,55,16.10
2014,09,13,09,56,16.20
2014,09,13,09,57,16.30
2014,09,13,09,58,16.30
2014,09,13,09,59,16.40
2014,09,13,10,00,16.50
2014,09,13,10,01,16.60
2014,09,13,10,02,16.60
2014,09,13,10,03,16.70
2014,09,13,10,04,16.70
2014,09,13,10,05,16.80
2014,09,13,10,06,16.80
2014,09,13,10,07,16.90
2014,09,13,10,08,17.00
2014,09,13,10,09,17.00
2014,09,13,10,10,17.10
2014,09,13,10,11,17.10
2014,09,13,10,12,17.10
2014,09,13,10,13,17.20
2014,09,13,10,14,17.30
2014,09,13,10,15,17.30
2014,09,13,10,16,17.40
2014,09,13,10,17,17.40
2014,09,13,10,18,17.50
2014,09,13,10,19,17.50
2014,09,13,10,20,17.70
2014,09,13,10,21,17.80
2014,09,13,10,22,17.90
2014,09,13,10,23,18.00
2014,09,13,10,24,18.20
2014,09,13,10,25,18.30
2014,09,13,10,26,18.30
2014,09,13,10,27,18.40
2014,09,13,10,28,18.40
2014,09,13,10,29,18.40
2014,09,13,10,30,18.40
2014,09,13,10,31,18.40
2014,09,13,10,32,18.40
2014,09,13,10,33,18.40
2014,09,13,10,34,18.40
2014,09,13,10,35,18.40
2014,09,13,10,36,18.50
2014,09,13,10,37,18.50
2014,09,13,10,38,18.60
2014,09,13,10,39,18.70
2014,09,13,10,40,18.80
2014,09,13,10,41,18.90
2014,09,13,10,42,19.00
2014,09,13,10,43,19.10
2014,09,13,10,44,19.20
2014,09,13,10,45,19.30
2014,09,13,10,46,19.30
2014,09,13,10,47,19.40
2014,09,13,10,48,19.40
2014,09,13,10,49,19.50
2014,09,13,10,50,19.60
2014,09,13,10,51,19.60
2014,09,13,10,52,19.60
2014,09,13,10,53,19.60
2014,09,13,10,54,19.60
2014,09,13,10,55,19.60
2014,09,13,10,56,19.60
2014,09,13,10,57,19.60
2014,09,13,10,58,19.60
2014,09,13,10,59,19.60
2014,09,13,11,00,19.60
2014,09,13,11,01,19.70
2014,09,13,11,02,19.70
2014,09,13,11,03,19.70
2014,09,13,11,04,19.70
2014,09,13,11,05,19.70
2014,09,13,11,06,19.70
2014,09,13,11,07,19.70
2014,09,13,11,08,19.70
2014,09,13,11,09,19.70
2014,09,13,11,10,19.70
2014,09,13,11,11,19.80
2014,09,13,11,12,19.80
2014,09,13,11,13,19.80
2014,09,13,11,14,19.90
2014,09,13,11,15,19.90
2014,09,13,11,16,19.90
2014,09,13,11,17,20.00
2014,09,13,11,18,20.00
2014,09,13,11,19,20.10
2014,09,13,11,20,20.20
2014,09,13,11,21,20.20
2014,09,13,11,22,20.30
2014,09,13,11,23,20.40
2014,09,13,11,24,20.40
2014,09,13,11,25,20.40
2014,09,13,11,26,20.40
2014,09,13,11,27,20.40
2014,09,13,11,28,20.40
2014,09,13,11,29,20.40
2014,09,13,11,30,20.40
2014,09,13,11,31,20.40
2014,09,13,11,32,20.50
2014,09,13,11,33,20.60
2014,09,13,11,34,20.60
2014,09,13,11,35,20.60
2014,09,13,11,36,20.60
2014,09,13,11,37,20.70
2014,09,13,11,38,20.70
2014,09,13,11,39,20.80
2014,09,13,11,40,20.80
2014,09,13,11,41,20.80
2014,09,13,11,42,20.90
2014,09,13,11,43,20.90
2014,09,13,11,44,20.90
2014,09,13,11,45,20.90
2014,09,13,11,46,21.00
2014,09,13,11,47,21.00
2014,09,13,11,48,21.10
2014,09,13,11,49,21.10
2014,09,13,11,50,21.20
2014,09,13,11,51,21.20
2014,09,13,11,52,21.30
2014,09,13,11,53,21.30
2014,09,13,11,54,21.40
2014,09,13,11,55,21.40
2014,09,13,11,56,21.40
2014,09,13,11,57,21.40
2014,09,13,11,58,21.50
2014,09,13,11,59,21.50
2014,09,13,12,00,21.50
2014,09,13,12,01,21.40
2014,09,13,12,02,21.40
2014,09,13,12,03,21.40
2014,09,13,12,04,21.40
2014,09,13,12,05,21.40
2014,09,13,12,06,21.40
2014,09,13,12,07,21.50
2014,09,13,12,08,21.50
2014,09,13,12,09,21.60
2014,09,13,12,10,21.70
2014,09,13,12,11,21.80
2014,09,13,12,12,21.90
2014,09,13,12,13,22.00
2014,09,13,12,14,22.10
2014,09,13,12,15,22.20
2014,09,13,12,16,22.30
2014,09,13,12,17,22.30
2014,09,13,12,18,22.30
2014,09,13,12,19,22.30
2014,09,13,12,20,22.40
2014,09,13,12,21,22.40
2014,09,13,12,22,22.40
2014,09,13,12,23,22.40
2014,09,13,12,24,22.40
2014,09,13,12,25,22.50
2014,09,13,12,26,22.50
2014,09,13,12,27,22.60
2014,09,13,12,28,22.60
2014,09,13,12,29,22.70
2014,09,13,12,30,22.70
2014,09,13,12,31,22.70
2014,09,13,12,32,22.70
2014,09,13,12,33,22.70
2014,09,13,12,34,22.70
2014,09,13,12,35,22.70
2014,09,13,12,36,22.70
2014,09,13,12,37,22.70
2014,09,13,12,38,22.70
2014,09,13,12,39,22.70
2014,09,13,12,40,22.70
2014,09,13,12,41,22.70
2014,09,13,12,42,22.70
2014,09,13,12,43,22.80
2014,09,13,12,44,22.80
2014,09,13,12,45,22.80
2014,09,13,12,46,22.80
2014,09,13,12,47,22.80
2014,09,13,12,48,22.90
2014,09,13,12,49,22.90
2014,09,13,12,50,23.00
2014,09,13,12,51,23.10
2014,09,13,12,52,23.20
2014,09,13,12,53,23.20
2014,09,13,12,54,23.20
2014,09,13,12,55,23.20
2014,09,13,12,56,23.20
2014,09,13,12,57,23.20
2014,09,13,12,58,23.20
2014,09,13,12,59,23.10
2014,09,13,13,00,23.10
2014,09,13,13,01,23.10
2014,09,13,13,02,23.10
2014,09,13,13,03,23.00
2014,09,13,13,04,23.00
2014,09,13,13,05,23.00
2014,09,13,13,06,23.10
2014,09,13,13,07,23.10
2014,09,13,13,08,23.00
2014,09,13,13,09,23.00
2014,09,13,13,10,23.00
2014,09,13,13,11,23.00
2014,09,13,13,12,23.00
2014,09,13,13,13,23.00
2014,09,13,13,14,23.00
2014,09,13,13,15,23.10
2014,09,13,13,16,23.10
2014,09,13,13,17,23.20
2014,09,13,13,18,23.30
2014,09,13,13,19,23.40
2014,09,13,13,20,23.40
2014,09,13,13,21,23.40
2014,09,13,13,22,23.40
2014,09,13,13,23,23.40
2014,09,13,13,24,23.40
2014,09,13,13,25,23.50
2014,09,13,13,26,23.50
2014,09,13,13,27,23.40
2014,09,13,13,28,23.40
2014,09,13,13,29,23.40
2014,09,13,13,30,23.40
2014,09,13,13,31,23.50
2014,09,13,13,32,23.60
2014,09,13,13,33,23.70
2014,09,13,13,34,23.70
2014,09,13,13,35,23.70
2014,09,13,13,36,23.80
2014,09,13,13,37,23.80
2014,09,13,13,38,23.80
2014,09,13,13,39,23.80
2014,09,13,13,40,23.80
2014,09,13,13,41,23.80
2014,09,13,13,42,23.70
2014,09,13,13,43,23.70
2014,09,13,13,44,23.70
2014,09,13,13,45,23.70
2014,09,13,13,46,23.70
2014,09,13,13,47,23.70
2014,09,13,13,48,23.80
2014,09,13,13,49,23.80
2014,09,13,13,50,23.80
2014,09,13,13,51,23.80
2014,09,13,13,52,23.80
2014,09,13,13,53,23.70
2014,09,13,13,54,23.80
2014,09,13,13,55,23.80
2014,09,13,13,56,23.90
2014,09,13,13,57,23.90
2014,09,13,13,58,24.00
2014,09,13,13,59,24.00
2014,09,13,14,00,24.10
2014,09,13,14,01,24.10
2014,09,13,14,02,24.10
2014,09,13,14,03,24.00
2014,09,13,14,04,23.90
2014,09,13,14,05,23.90
2014,09,13,14,06,23.90
2014,09,13,14,07,23.90
2014,09,13,14,08,24.00
2014,09,13,14,09,24.10
2014,09,13,14,10,24.20
2014,09,13,14,11,24.20
2014,09,13,14,12,24.20
2014,09,13,14,13,24.20
2014,09,13,14,14,24.20
2014,09,13,14,15,24.20
2014,09,13,14,16,24.20
2014,09,13,14,17,24.30
2014,09,13,14,18,24.30
2014,09,13,14,19,24.40
2014,09,13,14,20,24.40
2014,09,13,14,21,24.50
2014,09,13,14,22,24.50
2014,09,13,14,23,24.60
2014,09,13,14,24,24.60
2014,09,13,14,25,24.60
2014,09,13,14,26,24.60
2014,09,13,14,27,24.60
2014,09,13,14,28,24.60
2014,09,13,14,29,24.60
2014,09,13,14,30,24.60
2014,09,13,14,31,24.60
2014,09,13,14,32,24.50
2014,09,13,14,33,24.50
2014,09,13,14,34,24.40
2014,09,13,14,35,24.40
2014,09,13,14,36,24.30
2014,09,13,14,37,24.30
2014,09,13,14,38,24.30
2014,09,13,14,39,24.30
2014,09,13,14,40,24.30
2014,09,13,14,41,24.30
2014,09,13,14,42,24.30
2014,09,13,14,43,24.30
2014,09,13,14,44,24.40
2014,09,13,14,45,24.40
2014,09,13,14,46,24.50
2014,09,13,14,47,24.50
2014,09,13,14,48,24.50
2014,09,13,14,49,24.50
2014,09,13,14,50,24.50
2014,09,13,14,51,24.50
2014,09,13,14,52,24.50
2014,09,13,14,53,24.40
2014,09,13,14,54,24.40
2014,09,13,14,55,24.30
2014,09,13,14,56,24.30
2014,09,13,14,57,24.30
2014,09,13,14,58,24.30
2014,09,13,14,59,24.40
2014,09,13,15,00,24.40
2014,09,13,15,01,24.40
2014,09,13,15,02,24.40
2014,09,13,15,03,24.40
2014,09,13,15,04,24.40
2014,09,13,15,05,24.40
2014,09,13,15,06,24.40
2014,09,13,15,07,24.40
2014,09,13,15,08,24.40
2014,09,13,15,09,24.40
2014,09,13,15,10,24.40
2014,09,13,15,11,24.40
2014,09,13,15,12,24.40
2014,09,13,15,13,24.40
2014,09,13,15,14,24.40
2014,09,13,15,15,24.40
2014,09,13,15,16,24.40
2014,09,13,15,17,24.30
2014,09,13,15,18,24.30
2014,09,13,15,19,24.40
2014,09,13,15,20,24.40
2014,09,13,15,21,24.50
2014,09,13,15,22,24.50
2014,09,13,15,23,24.60
2014,09,13,15,24,24.70
2014,09,13,15,25,24.70
2014,09,13,15,26,24.80
2014,09,13,15,27,24.80
2014,09,13,15,28,24.80
2014,09,13,15,29,24.80
2014,09,13,15,30,24.80
2014,09,13,15,31,24.80
2014,09,13,15,32,24.90
2014,09,13,15,33,24.90
2014,09,13,15,34,25.00
2014,09,13,15,35,25.00
2014,09,13,15,36,25.10
2014,09,13,15,37,25.10
2014,09,13,15,38,25.10
2014,09,13,15,39,25.00
2014,09,13,15,40,25.00
2014,09,13,15,41,25.00
2014,09,13,15,42,25.00
2014,09,13,15,43,24.90
2014,09,13,15,44,24.90
2014,09,13,15,45,24.90
2014,09,13,15,46,24.90
2014,09,13,15,47,24.90
2014,09,13,15,48,25.00
2014,09,13,15,49,25.00
2014,09,13,15,50,25.10
2014,09,13,15,51,25.10
2014,09,13,15,52,25.10
2014,09,13,15,53,25.10
2014,09,13,15,54,25.10
2014,09,13,15,55,25.00
2014,09,13,15,56,25.00
2014,09,13,15,57,25.00
2014,09,13,15,58,24.90
2014,09,13,15,59,24.90
2014,09,13,16,00,24.80
2014,09,13,16,01,24.80
2014,09,13,16,02,24.80
2014,09,13,16,03,24.80
2014,09,13,16,04,24.70
2014,09,13,16,05,24.70
2014,09,13,16,06,24.60
2014,09,13,16,07,24.50
2014,09,13,16,08,24.50
2014,09,13,16,09,24.40
2014,09,13,16,10,24.40
2014,09,13,16,11,24.40
2014,09,13,16,12,24.40
2014,09,13,16,13,24.40
2014,09,13,16,14,24.40
2014,09,13,16,15,24.40
2014,09,13,16,16,24.50
2014,09,13,16,17,24.50
2014,09,13,16,18,24.50
2014,09,13,16,19,24.50
2014,09,13,16,20,24.50
2014,09,13,16,21,24.50
2014,09,13,16,22,24.50
2014,09,13,16,23,24.50
2014,09,13,16,24,24.50
2014,09,13,16,25,24.50
2014,09,13,16,26,24.50
2014,09,13,16,27,24.50
2014,09,13,16,28,24.60
2014,09,13,16,29,24.60
2014,09,13,16,30,24.60
2014,09,13,16,31,24.60
2014,09,13,16,32,24.60
2014,09,13,16,33,24.60
2014,09,13,16,34,24.70
2014,09,13,16,35,24.70
2014,09,13,16,36,24.70
2014,09,13,16,37,24.80
2014,09,13,16,38,24.80
2014,09,13,16,39,24.80
2014,09,13,16,40,24.90
2014,09,13,16,41,24.90
2014,09,13,16,42,24.90
2014,09,13,16,43,24.90
2014,09,13,16,44,24.90
2014,09,13,16,45,24.90
2014,09,13,16,46,24.90
2014,09,13,16,47,24.90
2014,09,13,16,48,24.90
2014,09,13,16,49,24.90
2014,09,13,16,50,24.90
2014,09,13,16,51,24.90
2014,09,13,16,52,24.90
2014,09,13,16,53,24.80
2014,09,13,16,54,24.80
2014,09,13,16,55,24.80
2014,09,13,16,56,24.80
2014,09,13,16,57,24.80
2014,09,13,16,58,24.80
2014,09,13,16,59,24.80
2014,09,13,17,00,24.80
2014,09,13,17,01,24.80
2014,09,13,17,02,24.80
2014,09,13,17,03,24.80
2014,09,13,17,04,24.70
2014,09,13,17,05,24.70
2014,09,13,17,06,24.70
2014,09,13,17,07,24.70
2014,09,13,17,08,24.80
2014,09,13,17,09,24.80
2014,09,13,17,10,24.80
2014,09,13,17,11,24.80
2014,09,13,17,12,24.80
2014,09,13,17,13,24.80
2014,09,13,17,14,24.80
2014,09,13,17,15,24.80
2014,09,13,17,16,24.80
2014,09,13,17,17,24.80
2014,09,13,17,18,24.80
2014,09,13,17,19,24.80
2014,09,13,17,20,24.90
2014,09,13,17,21,24.90
2014,09,13,17,22,24.90
2014,09,13,17,23,25.00
2014,09,13,17,24,25.00
2014,09,13,17,25,25.10
2014,09,13,17,26,25.10
2014,09,13,17,27,25.10
2014,09,13,17,28,25.00
2014,09,13,17,29,25.00
2014,09,13,17,30,24.90
2014,09,13,17,31,24.90
2014,09,13,17,32,24.80
2014,09,13,17,33,24.80
2014,09,13,17,34,24.80